Location: Budapest
(47.4979°N, 19.0402°E)
Time: 19:55:05
(UTC+02:00)

Vanguard 3 - Visible Passes

Search period start: 23 June 2018 00:00
Search period end: 03 July 2018 00:00
Orbit: 508 x 3264 km, 33.3° (Epoch: 22 June)

Date Brightness Start Highest point End Pass type
(mag) Time Alt. Az. Time Alt. Az. Time Alt. Az.
23 Jun 8.9 03:08:47 12° S 03:11:29 17° SSE 03:15:54 10° ESE visible
24 Jun 8.9 04:04:11 10° SW 04:08:41 24° SSE 04:15:19 10° ESE visible
25 Jun 8.7 02:53:54 14° S 02:55:30 16° SSE 02:59:17 10° ESE visible
26 Jun 8.7 03:48:47 10° SW 03:52:45 22° SSE 03:58:24 10° ESE visible
27 Jun 8.6 02:39:07 15° SSE 02:39:36 15° SSE 02:42:45 10° SE visible
28 Jun 8.5 03:34:04 13° SSW 03:36:54 19° S 03:41:34 10° SE visible
29 Jun 8.7 02:24:29 13° SSE 02:24:29 13° SSE 02:26:18 10° SE visible
30 Jun 8.4 03:19:31 15° SSW 03:21:05 17° S 03:24:47 10° SE visible
02 Jul 8.5 03:05:13 14° S 03:05:18 14° S 03:08:01 10° SE visible
